[[{"header":{"parameterUnit":"m.s-1","parameterCategory":1,"la1":30.2991,"la2":30.254,"lo1":-89.0895,"lo2":-89.0444,"dy":0.0017,"dx":0.0017,"nx":28,"ny":28,"refTime":"2026-02-05T03:00:00:Z","depth":0,"parameterNumber":2,"parameterNumberName":"U-component_of_WINDS"},"data":[0,0,0,0,0,0,0,0,0,0,0,0,0,0,0,0,0,0,0,0,0,0,0,0,0,0,0,0,0,0,0,0,0,0,0,0,0,0,0,0,0,0,0,0,0,0,0,0,0,0,0,0,0,0,0,0,0,0,4.5833,4.5835,0,4.5951,4.5953,4.5954,4.5887,4.5884,4.5881,4.5878,4.6,4.6006,4.6012,0,0,0,0,0,0,0,0,0,0,0,0,0,4.5553,4.5559,4.5833,4.5835,4.5836,4.5951,4.5953,4.5954,4.5888,4.5884,4.588,4.5876,4.5998,4.6005,4.6013,0,0,0,0,0,0,0,0,0,0,0,0,0,4.5673,4.5561,4.5833,4.5817,4.5817,4.5951,4.5953,4.5955,4.5889,4.5884,4.5879,4.5874,4.5995,4.6004,4.6014,4.6171,0,0,4.6043,4.6047,0,0,0,0,0,0,0,0,4.5667,4.5684,4.5818,4.5818,4.5818,4.5899,4.5898,4.6027,4.589,4.5861,4.5878,4.5872,4.597,4.5982,4.6015,4.6176,4.6181,4.6043,4.6049,4.6053,4.6056,0,0,0,0,0,0,0,4.5658,4.5678,4.588,4.582,4.582,4.5805,4.5816,4.5923,4.5942,4.5864,4.5859,4.5874,4.597,4.6006,4.6017,4.6183,4.6043,4.6052,4.6057,4.6061,4.6481,4.6487,0,0,0,0,0,0,4.5651,4.5672,4.5876,4.5883,4.5729,4.5814,4.5827,4.5878,4.5941,4.5946,4.5878,4.587,4.5992,4.6006,4.6021,4.621,4.6053,4.6062,4.6067,4.6476,4.6483,4.6488,0,0,0,0,0,0,4.5645,4.567,4.5871,4.5777,4.5801,4.5824,4.5882,4.5883,4.5919,4.5952,4.5955,4.5911,4.5989,4.6008,4.6134,4.6213,4.6066,4.6075,4.6469,4.6478,4.6485,4.6588,0,0,0,0,0,0,4.5637,4.5668,4.5727,4.5778,4.5806,4.5982,4.5887,4.5889,4.5936,4.5927,4.5983,4.5988,4.5986,4.612,4.6144,4.6223,4.6082,4.6462,4.6473,4.6483,4.6578,4.6599,4.6617,0,0,0,0,0,4.5628,4.5751,4.5731,4.5756,4.5881,4.5987,4.6003,4.5998,4.5942,4.6002,4.6023,4.5986,4.6201,4.6134,4.6159,4.6243,4.6457,4.647,4.6482,4.6569,4.6594,4.6616,0,0,0,0,0,0,4.5709,4.5758,4.5735,4.5879,4.5929,4.5975,4.6051,4.6025,4.6092,4.6081,4.6072,4.6086,4.6218,4.6243,4.6168,4.6399,4.632,4.6339,4.6378,4.6402,4.6421,4.6413,4.609,0,0,0,0,0,4.5744,4.5825,4.5864,4.5987,4.6013,4.6028,4.6074,4.6066,4.6118,4.6139,4.6169,4.6221,4.63,4.6353,4.6427,4.6581,4.6593,4.6651,4.6671,4.6687,4.6702,4.6787,4.6814,4.6529,4.6529,4.6529,0,0,4.5816,4.5853,4.5905,4.6004,4.6042,4.6128,4.6046,4.614,4.6204,4.6153,4.6274,4.6299,4.6357,4.6498,4.6561,4.6523,4.6784,4.6702,4.6715,4.6722,4.6803,4.6829,4.6853,4.6537,4.6536,4.6535,0,0,4.5992,4.6028,4.6135,4.6175,4.6233,4.6243,4.6269,4.6319,4.6333,4.6455,4.6419,4.6495,4.6632,4.6675,4.6714,4.6909,4.6878,4.6933,4.7035,4.7118,4.714,4.716,4.723,4.7256,4.6949,4.6949,4.6949,0,4.6075,4.6202,4.6193,4.629,4.6336,4.6294,4.6403,4.6442,4.6523,4.6555,4.6511,4.6682,4.6718,4.6869,4.6917,4.695,4.698,4.6927,4.7138,4.7157,4.7176,4.7243,4.7269,4.6956,4.6955,4.6954,4.6954,0,4.6301,4.639,4.647,4.6548,4.6602,4.6705,4.6713,4.6769,4.6757,4.6771,4.6897,4.6938,4.7021,4.7057,4.7045,4.7207,4.7182,4.7138,4.7059,4.721,4.7272,4.7298,4.6965,4.6962,4.6961,4.6959,0,0,4.6531,4.6605,4.6634,4.667,4.6732,4.6801,4.6902,4.6983,4.7032,4.7089,4.7175,4.7292,4.7252,4.7297,4.7291,4.7363,4.7516,4.731,4.7312,4.7348,4.7698,4.7731,4.7761,4.7495,4.75,4.7504,4.7693,0,4.6712,4.6888,4.6884,4.7048,4.7131,4.7093,4.7182,4.723,4.7247,4.732,4.7338,4.7422,4.7362,4.739,4.746,4.7482,4.7586,4.7468,4.7576,4.758,4.7563,4.7793,4.7828,4.8004,4.7718,4.7722,4.7725,0,4.6945,4.7011,4.7183,4.7234,4.7269,4.7348,4.7423,4.7493,4.7548,4.7555,4.7606,4.7589,4.7693,4.7611,4.7755,4.7675,4.7719,4.7737,4.7744,4.7754,4.7662,4.781,4.806,4.8087,4.7763,4.776,4.7757,0,4.7097,4.7228,4.7348,4.738,4.7442,4.7499,4.7528,4.7578,4.7627,4.7693,4.7725,4.7802,4.7845,4.7905,4.7909,4.7849,4.8055,4.7973,4.8065,4.8065,4.811,4.8107,4.8371,4.8138,4.8137,4.8137,4.8136,0,4.7299,4.7406,4.7417,4.7491,4.7611,4.7606,4.7725,4.7748,4.7793,4.7872,4.7844,4.7919,4.792,4.7997,4.8001,4.812,4.8139,4.8149,4.8148,4.8151,4.815,4.818,4.8168,4.8144,4.8142,4.8141,4.814,0,4.7488,4.7499,4.7628,4.7677,4.7692,4.7779,4.7821,4.7892,4.7906,4.8007,4.803,4.8053,4.8142,4.8152,4.8256,4.8259,4.8403,4.8389,4.8384,4.8382,4.8474,4.8465,4.8767,4.8806,4.8546,4.8549,4.8551,0,4.7616,4.7698,4.7756,4.7807,4.7839,4.7921,4.7971,4.797,4.8024,4.8093,4.8157,4.8243,4.8312,4.8456,4.8483,4.8562,4.8551,4.8651,4.8563,4.8563,4.8553,4.8549,4.8557,4.8668,4.8671,4.8673,4.8675,0,4.7843,4.7845,4.7918,4.7995,4.8056,4.8116,4.8172,4.8215,4.8221,4.8284,4.8374,4.8428,4.8534,4.8621,4.8699,4.873,4.8705,4.8703,4.8729,4.8732,4.8726,4.8732,4.8432,4.8696,4.8694,4.8692,4.8691,4.869,4.8006,4.8078,4.813,4.8213,4.8255,4.8309,4.8379,4.8402,4.8477,4.8563,4.8559,4.8659,4.8713,4.8816,4.8853,4.8932,4.8899,4.8935,4.8945,4.8954,4.8964,4.8714,4.8946,4.8946,4.8945,4.8945,4.8944,0,4.8233,4.8265,4.8341,4.8421,4.8487,4.8457,4.8518,4.8575,4.8664,4.8716,4.8784,4.889,4.8974,4.9007,4.909,4.9147,4.9137,4.9169,4.9165,4.9172,4.8988,4.8958,4.9175,4.9175,4.9175,4.9175,4.9175,4.9175,4.8358,4.8477,4.8486,4.8626,4.8658,4.8756,4.8793,4.8843,4.8885,4.9003,4.9073,4.9094,4.9139,4.9225,4.9302,4.9309,4.9341,4.9378,4.9381,4.9208,4.9185,4.9163,4.9135,4.9385,4.9385,4.9558,4.956,4.9561]},{"header":{"parameterUnit":"m.s-1","parameterCategory":1,"la1":30.2991,"la2":30.254,"lo1":-89.0895,"lo2":-89.0444,"dy":0.0017,"dx":0.0017,"nx":28,"ny":28,"refTime":"2026-02-05T03:00:00:Z","depth":0,"parameterNumber":3,"parameterNumberName":"V-component_of_WINDS"},"data":[0,0,0,0,0,0,0,0,0,0,0,0,0,0,0,0,0,0,0,0,0,0,0,0,0,0,0,0,0,0,0,0,0,0,0,0,0,0,0,0,0,0,0,0,0,0,0,0,0,0,0,0,0,0,0,0,0,0,-3.6516,-3.6517,0,-3.6693,-3.6695,-3.6697,-3.6705,-3.6703,-3.67,-3.6698,-3.6881,-3.6887,-3.6894,0,0,0,0,0,0,0,0,0,0,0,0,0,-3.6185,-3.6191,-3.6515,-3.6518,-3.652,-3.6693,-3.6695,-3.6697,-3.6705,-3.6702,-3.67,-3.6697,-3.6879,-3.6887,-3.6895,0,0,0,0,0,0,0,0,0,0,0,0,0,-3.6342,-3.6193,-3.6515,-3.6544,-3.6549,-3.6692,-3.6695,-3.6698,-3.6706,-3.6702,-3.6699,-3.6696,-3.6876,-3.6886,-3.6896,-3.7022,0,0,-3.6927,-3.6932,0,0,0,0,0,0,0,0,-3.6333,-3.6354,-3.6538,-3.6543,-3.6548,-3.6673,-3.6645,-3.6807,-3.6706,-3.6646,-3.6698,-3.6695,-3.6814,-3.6829,-3.687,-3.7031,-3.7038,-3.6928,-3.6934,-3.6939,-3.6941,0,0,0,0,0,0,0,-3.6322,-3.6346,-3.6586,-3.654,-3.6547,-3.6549,-3.6568,-3.6676,-3.6746,-3.6651,-3.6652,-3.6673,-3.6816,-3.686,-3.6874,-3.7041,-3.6928,-3.6937,-3.6943,-3.6947,-3.7316,-3.7319,0,0,0,0,0,0,-3.6305,-3.6337,-3.658,-3.6591,-3.643,-3.6558,-3.6579,-3.6636,-3.6745,-3.6758,-3.6675,-3.6673,-3.6844,-3.6862,-3.688,-3.7036,-3.6938,-3.6948,-3.6954,-3.7312,-3.7316,-3.732,0,0,0,0,0,0,-3.6298,-3.6327,-3.6573,-3.6464,-3.6496,-3.6567,-3.6631,-3.6641,-3.6685,-3.6763,-3.6776,-3.6707,-3.6842,-3.6866,-3.6987,-3.7042,-3.6953,-3.6962,-3.7308,-3.7313,-3.7318,-3.7348,0,0,0,0,0,0,-3.6288,-3.6324,-3.6372,-3.6465,-3.6502,-3.6676,-3.6635,-3.6647,-3.6702,-3.67,-3.6796,-3.6808,-3.6841,-3.6972,-3.6997,-3.7055,-3.697,-3.7303,-3.731,-3.7317,-3.7342,-3.7353,-3.7363,0,0,0,0,0,-3.6277,-3.6373,-3.6375,-3.6404,-3.6563,-3.6679,-3.67,-3.6736,-3.6707,-3.6756,-3.6807,-3.6805,-3.7032,-3.6984,-3.7013,-3.7074,-3.73,-3.7308,-3.7316,-3.7337,-3.7351,-3.7363,0,0,0,0,0,0,-3.6285,-3.6386,-3.6389,-3.6518,-3.659,-3.668,-3.6743,-3.6749,-3.6831,-3.6826,-3.6867,-3.6888,-3.7009,-3.7054,-3.6998,-3.7203,-3.7163,-3.7177,-3.7169,-3.7183,-3.7193,-3.718,-3.6978,0,0,0,0,0,-3.6302,-3.6387,-3.6471,-3.6577,-3.6613,-3.6672,-3.6724,-3.6745,-3.6821,-3.6852,-3.6911,-3.6985,-3.7073,-3.7131,-3.7216,-3.7349,-3.737,-3.7405,-3.7416,-3.7424,-3.7436,-3.7511,-3.7527,-3.7348,-3.7347,-3.7347,0,0,-3.6337,-3.6403,-3.6454,-3.6581,-3.6639,-3.6727,-3.6698,-3.6792,-3.6857,-3.6866,-3.6984,-3.703,-3.7116,-3.7244,-3.7303,-3.7285,-3.7491,-3.7435,-3.7441,-3.7448,-3.7521,-3.7538,-3.7553,-3.7353,-3.7352,-3.7351,0,0,-3.6448,-3.6506,-3.6601,-3.666,-3.6749,-3.6787,-3.681,-3.69,-3.6931,-3.705,-3.7059,-3.7138,-3.7289,-3.735,-3.74,-3.7535,-3.7537,-3.7562,-3.7617,-3.7689,-3.7703,-3.7716,-3.7765,-3.7781,-3.7573,-3.7573,-3.7573,0,-3.6481,-3.6613,-3.6649,-3.6744,-3.6799,-3.6812,-3.6909,-3.6965,-3.7076,-3.7115,-3.7093,-3.7283,-3.7342,-3.7484,-3.7517,-3.7557,-3.7585,-3.7551,-3.7698,-3.7711,-3.7724,-3.7771,-3.7789,-3.7576,-3.7575,-3.7575,-3.7575,0,-3.665,-3.6742,-3.6808,-3.6916,-3.6979,-3.7075,-3.7126,-3.7186,-3.7202,-3.7243,-3.7365,-3.7436,-3.7536,-3.7571,-3.7588,-3.7717,-3.7703,-3.7689,-3.765,-3.7743,-3.7787,-3.7806,-3.7579,-3.7578,-3.7578,-3.7577,0,0,-3.677,-3.6897,-3.6921,-3.697,-3.7069,-3.7141,-3.7238,-3.7336,-3.7386,-3.7463,-3.7546,-3.7674,-3.7662,-3.7719,-3.7743,-3.7807,-3.791,-3.7786,-3.7788,-3.7806,-3.8057,-3.8067,-3.8087,-3.7912,-3.7915,-3.7918,-3.805,0,-3.6891,-3.7062,-3.7098,-3.7246,-3.7332,-3.7345,-3.743,-3.75,-3.7541,-3.7621,-3.7666,-3.7757,-3.7734,-3.7769,-3.7832,-3.7884,-3.796,-3.7875,-3.7989,-3.7993,-3.7968,-3.811,-3.8121,-3.8241,-3.8067,-3.807,-3.8073,0,-3.7055,-3.7136,-3.7293,-3.7381,-3.7419,-3.7494,-3.7587,-3.7662,-3.7743,-3.7769,-3.7833,-3.7851,-3.7952,-3.7908,-3.8049,-3.799,-3.8039,-3.8071,-3.8077,-3.8089,-3.8038,-3.8126,-3.828,-3.8299,-3.81,-3.8098,-3.8096,0,-3.7127,-3.7276,-3.7389,-3.7431,-3.7537,-3.7589,-3.7636,-3.7713,-3.777,-3.7852,-3.789,-3.7982,-3.8033,-3.8104,-3.8147,-3.8111,-3.8285,-3.8244,-3.831,-3.8309,-3.8346,-3.8343,-3.851,-3.8377,-3.8377,-3.8376,-3.8376,0,-3.7259,-3.7354,-3.7423,-3.7492,-3.76,-3.7641,-3.7747,-3.7793,-3.7862,-3.7941,-3.7959,-3.8033,-3.8084,-3.8166,-3.82,-3.8312,-3.8335,-3.8359,-3.8367,-3.8358,-3.8355,-3.839,-3.8383,-3.8381,-3.838,-3.8379,-3.8378,0,-3.7358,-3.7407,-3.7532,-3.7622,-3.7647,-3.7722,-3.78,-3.7869,-3.7911,-3.8011,-3.8037,-3.8103,-3.8201,-3.825,-3.8371,-3.8394,-3.852,-3.8523,-3.8493,-3.8496,-3.856,-3.8553,-3.8756,-3.8785,-3.8632,-3.8633,-3.8635,0,-3.7438,-3.7512,-3.7611,-3.7665,-3.7713,-3.78,-3.7859,-3.7902,-3.7962,-3.806,-3.8117,-3.8215,-3.8296,-3.8451,-3.851,-3.8603,-3.8609,-3.8673,-3.8623,-3.8612,-3.861,-3.8606,-3.8614,-3.8682,-3.8684,-3.8685,-3.8686,0,-3.7577,-3.7598,-3.7681,-3.7774,-3.7843,-3.7918,-3.7992,-3.8035,-3.8091,-3.8158,-3.8257,-3.832,-3.8444,-3.8542,-3.864,-3.8688,-3.8697,-3.8701,-3.8722,-3.8713,-3.8693,-3.8705,-3.8518,-3.8697,-3.8695,-3.8695,-3.8694,-3.8694,-3.767,-3.7736,-3.7816,-3.7909,-3.7969,-3.8038,-3.8107,-3.8158,-3.8241,-3.8346,-3.8366,-3.8472,-3.8552,-3.8684,-3.8736,-3.882,-3.8806,-3.8835,-3.8843,-3.8849,-3.8853,-3.868,-3.8838,-3.8838,-3.8837,-3.8837,-3.8837,0,-3.7809,-3.7862,-3.7946,-3.8049,-3.8122,-3.8124,-3.8206,-3.8267,-3.836,-3.8433,-3.8513,-3.8628,-3.8723,-3.879,-3.8887,-3.8941,-3.8948,-3.8965,-3.8962,-3.8973,-3.8859,-3.8832,-3.8959,-3.8959,-3.8959,-3.8958,-3.8958,-3.8958,-3.7891,-3.8004,-3.8034,-3.8178,-3.823,-3.8333,-3.838,-3.8444,-3.8503,-3.8631,-3.871,-3.8753,-3.8824,-3.8927,-3.9014,-3.9032,-3.9067,-3.9084,-3.9102,-3.8994,-3.8981,-3.8969,-3.8944,-3.9092,-3.9092,-3.9209,-3.921,-3.9211]}]]